Location: *
(48.7358°N, 0.3111°E)
Time: 14:12:24
(UTC+00:00)

SL-14 R/B - Pass Details

Date: 22 October 2019
Orbit: 518 x 555 km, 82.4° (Epoch: 20 November)

Event Time Altitude Azimuth Distance (km) Brightness Sun altitude
Rises 05:35:26 0° 183° (S) 2,677 6.9 -9.5°
Reaches altitude 10° 05:37:35 10° 182° (S) 1,784 6.0 -9.2°
Maximum altitude 05:41:29 73° 97° (E) 559 3.5 -8.5°
Drops below altitude 10° 05:45:23 10° 13° (NNE) 1,780 6.0 -7.9°
Sets 05:47:32 0° 12° (NNE) 2,669 6.9 -7.5°
